Regional Weather Roundup
Issued by NWS

Home | Current Version | Previous Version | Graphics & Text | Print | Product List | Glossary On
Versions: 1 2 3 4 5 6 7 8 9 10 11 12 13 14 15 16 17 18 19 20 21 22 23 24 25 26 27 28 29 30 31 32 33 34 35 36 37 38 39 40 41 42 43 44 45 46 47 48 49 50
000
ASUS43 KMKX 050421
RWRWI

WISCONSIN REGIONAL WEATHER ROUNDUP
NATIONAL WEATHER SERVICE MILWAUKEE/SULLIVAN WI
1100 PM CDT TUE AUG 04 2015

NOTE: "FAIR" INDICATES FEW OR NO CLOUDS BELOW 12,000 FEET WITH NO
SIGNIFICANT WEATHER AND/OR OBSTRUCTIONS TO VISIBILITY.

WIZ001-002-006>008-014>016-023>028-050500-
NORTHWEST WISCONSIN

CITY           SKY/WX    TMP DP  RH WIND       PRES   REMARKS
SUPERIOR ARPT  CLEAR     56  50  81 NE5       30.06R
ASHLAND        CLEAR     50  50 100 CALM      30.07R
HAYWARD        PTCLDY    56  52  86 N5        30.06R
SIREN          CLEAR     58  54  85 CALM      30.05R
CUMBERLAND     CLEAR     59  54  82 CALM      30.05R
RICE LAKE      CLEAR     58  55  91 CALM      30.06R
CHETEK         CLEAR     64  57  78 CALM      30.05R
LADYSMITH      CLEAR     59  55  84 NE3       30.08R
EAU CLAIRE     CLEAR     60  56  86 CALM      30.02R
MENOMONIE      CLEAR     64  56  76 CALM      30.03R
NEW RICHMOND   CLEAR     60  57  91 CALM      30.03S
OSCEOLA        CLEAR     60  60 100 CALM      30.05S
$$

WIZ003>005-009-010-017-018-050500-
NORTH CENTRAL WISCONSIN

CITY           SKY/WX    TMP DP  RH WIND       PRES   REMARKS
MANITOWISH WTR CLEAR     53  51  91 CALM      30.08R
ARBOR VITAE    CLEAR     55  52  88 CALM      30.07R
WOODRUFF       CLEAR     55  52  88 CALM      30.07R
RHINELANDER    CLOUDY    59  51  75 VRB3      30.08R
EAGLE RIVER    CLEAR     49  49  98 CALM      30.07R
LAND O LAKES   CLEAR     49  48  95 CALM      30.08R
PHILLIPS       CLOUDY    58  53  83 N3        30.07R
TOMAHAWK       CLOUDY    56  53  89 CALM      30.07R
MEDFORD        CLEAR     56  54  91 NE5       30.05S
MERRILL        NOT AVBL
$$

WIZ029-030-035-036-043>047-050500-
CENTRAL WISCONSIN

CITY           SKY/WX    TMP DP  RH WIND       PRES   REMARKS
WAUSAU         CLEAR     62  54  74 N3        30.03R
MOSINEE        CLEAR     59  54  82 NE3       30.05R
MARSHFIELD     CLEAR     60  54  80 CALM      30.04R
STEVENS POINT  CLEAR     56  53  89 CALM      30.04R
WAUPACA        CLEAR     60  58  92 CALM      30.03R
WAUTOMA        CLEAR     59  54  83 CALM      30.03S
WISC RAPIDS    LGT RAIN  59  53  80 CALM      30.04R
CAMP DOUGLAS   CLEAR     53  53 100 CALM      30.03R
$$

WIZ011>013-019>022-031-037>040-048>050-050500-
NORTHEAST WISCONSIN

CITY           SKY/WX    TMP DP  RH WIND       PRES   REMARKS
ANTIGO         CLOUDY    57  55  91 CALM      30.06R
SHAWANO        MOCLDY    64  58  81 CALM      30.04R
OCONTO         CLOUDY    63  59  87 CALM      30.03R
STURGEON BAY   PTCLDY    61  54  77 E3        30.06R
GREEN BAY      CLEAR     63  57  81 E6        30.03R
MANITOWOC      CLEAR     61  60  97 MISG      30.02R
APPLETON       PTCLDY    63  52  67 NW6       30.02S
CLINTONVILLE   PTCLDY    59  54  82 CALM      30.03R
OSHKOSH        CLEAR     60  54  80 CALM      30.02R
$$

WIZ032>034-041-042-053>061-050500-
SOUTHWEST WISCONSIN

CITY           SKY/WX    TMP DP  RH WIND       PRES   REMARKS
LA CROSSE      CLEAR     66  59  78 S6        30.02R
SPARTA         CLEAR     57  55  92 CALM      30.04S
VIROQUA        CLEAR     64  55  75 SW3       30.05S
BOSCOBEL       CLEAR     59  56  89 CALM      30.04S
PRAIRIE DU CHI CLEAR     61  56  82 CALM      30.04S
PLATTEVILLE    PTCLDY    65  56  72 CALM      30.05S
$$

WIZ056-057-062-063-064-067-068-050500-
SOUTH CENTRAL WISCONSIN

CITY           SKY/WX    TMP DP  RH WIND       PRES   REMARKS
REEDSBURG      CLEAR     61  56  85 CALM      30.04R
BARABOO/DELLS  CLEAR     60  53  78 CALM      30.04R
LONE ROCK      CLEAR     60  55  83 CALM      30.04S
MINERAL POINT  CLEAR     64  54  68 CALM      30.05S
MADISON        PTCLDY    63  54  72 CALM      30.03R
MIDDLETON      CLEAR     59  54  82 CALM      30.04S
WATERTOWN      CLEAR     60  60 100 CALM      30.02S
MONROE         PTCLDY    68  55  64 W7        30.05R
JANESVILLE     FAIR      63  61  94 CALM      30.04R
$$

WIZ051-052-058>065-066-070>072-050500-
SOUTHEAST WISCONSIN

CITY           SKY/WX    TMP DP  RH WIND       PRES   REMARKS
MILWAUKEE      PTCLDY    66  55  67 SW5       30.02S
WAUKESHA       CLEAR     61  52  72 CALM      30.04R
MILWAUKEE/TIMM CLEAR     63  52  67 CALM      30.03S
RACINE         PTCLDY    65  57  75 SW6       30.04S
BURLINGTON     CLEAR     57  55  93 SW6       30.03S
KENOSHA        PTCLDY    61  56  83 SW5       30.03S
FOND DU LAC    CLEAR     60  56  86 CALM      30.02R
SHEBOYGAN      CLEAR     59  56  89 CALM      30.02R
WEST BEND      CLEAR     59  54  82 CALM      30.03R
JUNEAU         CLEAR     61  54  77 CALM      30.04S
$$

LSZ147-162-050500-
LAKE SUPERIOR

STATION/POSITION TIME  TEMP    WIND        PRES    WAVE
                       AIR SEA DIR/SP/G            HT/PER
                 (UTC) (F)     (DEG/KT/KT) (MB)    (FT/S)
W MID LAKE BUOY  0350   58 58  230/  6/  8 1017.6R   0
DEVILS ISLAND    0400   61     180/  5/  6 1018.0R
PORT WING        0340   59     140/  2/  5 1017.9R
SAXON HARBOR     0300   56      CALM  /  2 1017.3
$$

LMZ867-665-643>646-050500-
LAKE MICHIGAN

STATION/POSITION TIME  TEMP    WIND        PRES    WAVE
                       AIR SEA DIR/SP/G            HT/PER
                 (UTC) (F)     (DEG/KT/KT) (MB)    (FT/S)
CHAMBERS ISLAND  0300   65      40/  8/ 11 1016.3R
N MID LAKE BUOY  0350   62 68  340/ 10/ 14 1016.5R   1/ 3
NORTHPORT PIER   0300   63      40/  5/  7 1016.6R
SISTER BAY       0303   61     100/  1/  5   N/A
ALGOMA LAKESHORE 0312             CALM       N/A
KEWAUNEE LAKESHO 0300   62      50/  4/  6 1015.7R
SHEBOYGAN LAKESH 0400   69     270/  4/  4 1016.5R
PORT WASHINGTON  0300   68     260/  1/  3 1016.6R
ATWATER BUOY     0400   67 64  180/  6/  6 1017.9R
MILWAUKEE LAKESH 0400   68     210/  2/  4   N/A
KENOSHA   LAKESH 0400   69     210/  7/ 10 1016.3S
$$

TC  - TEMPERATURE IN CELSIUS
VSB - VISIBILITY IN STATUTE MILES
WCI - WIND CHILL INDEX
HX  - HEAT INDEX




USA.gov is the U.S. government's official web portal to all federal, state and local government web resources and services.